Location: Croydon
(51.3762°N, 0.0982°W)
Time: 08:57:46
(UTC+00:00)

Altair - All Passes

Search period start: 14 November 2019 00:00
Search period end: 24 November 2019 00:00
Orbit: 1502 x 1682 km, 47.2° (Epoch: 13 November)

Date Brightness Start Highest point End Pass type
(mag) Time Alt. Az. Time Alt. Az. Time Alt. Az.
14 Nov - 02:07:15 10° SSE 02:10:35 12° SE 02:13:55 10° ESE visible
14 Nov - 04:04:51 10° SSW 04:13:02 38° SE 04:21:21 10° E visible
14 Nov - 06:07:40 10° WSW 06:16:43 66° SSE 06:26:01 10° E visible
14 Nov - 08:11:49 10° W 08:20:57 65° SSW 08:30:22 10° ESE daylight
14 Nov - 10:16:19 10° W 10:24:41 38° SW 10:33:20 10° SSE daylight
14 Nov - 12:23:38 10° WSW 12:27:16 13° SW 12:30:56 10° SSW daylight
15 Nov - 01:43:34 10° SE 01:45:38 11° ESE 01:47:42 10° ESE visible
15 Nov - 03:39:56 10° SSW 03:48:00 36° SE 03:56:09 10° E visible
15 Nov - 05:42:35 10° WSW 05:51:36 64° SSE 06:00:50 10° E visible
15 Nov - 07:46:41 10° W 07:55:49 66° S 08:05:14 10° ESE daylight
15 Nov - 09:51:09 10° W 09:59:37 40° SSW 10:08:21 10° SSE daylight
15 Nov - 11:57:53 10° W 12:02:17 14° SW 12:06:46 10° SSW daylight
16 Nov - 03:15:03 10° SSW 03:22:57 34° SE 03:30:56 10° E visible
16 Nov - 05:17:30 10° WSW 05:26:29 63° SSE 05:35:40 10° E visible
16 Nov - 07:21:34 10° W 07:30:41 67° S 07:40:04 10° ESE daylight
16 Nov - 09:25:59 10° W 09:34:33 43° SSW 09:43:21 10° SE daylight
16 Nov - 11:32:17 10° W 11:37:18 16° SW 11:42:25 10° SSW daylight
17 Nov - 02:50:11 10° SSW 02:57:56 32° SE 03:05:43 10° E visible
17 Nov - 04:52:25 10° WSW 05:01:23 61° SSE 05:10:30 10° E visible
17 Nov - 06:56:26 10° W 07:05:33 68° S 07:14:55 10° ESE daylight
17 Nov - 09:00:50 10° W 09:09:27 45° SSW 09:18:21 10° SE daylight
17 Nov - 11:06:47 10° W 11:12:18 17° SW 11:17:57 10° SSW daylight
18 Nov - 02:25:21 10° SSW 02:32:54 30° SE 02:40:29 10° E visible
18 Nov - 04:27:21 10° WSW 04:36:16 59° SSE 04:45:20 10° E visible
18 Nov - 06:31:19 10° W 06:40:26 69° S 06:49:46 10° ESE visible
18 Nov - 08:35:41 10° W 08:44:22 47° SSW 08:53:19 10° SE daylight
18 Nov - 10:41:22 10° W 10:47:18 19° SW 10:53:23 10° S daylight
19 Nov - 02:00:32 10° SSW 02:07:53 28° SE 02:15:14 10° E visible
19 Nov - 04:02:17 10° SW 04:11:10 57° SSE 04:20:10 10° E visible
19 Nov - 06:06:11 10° W 06:15:17 69° S 06:24:37 10° ESE visible
19 Nov - 08:10:33 10° W 08:19:17 49° SSW 08:28:17 10° SE daylight
19 Nov - 10:15:59 10° W 10:22:19 21° SW 10:28:46 10° S daylight
20 Nov - 01:35:45 10° S 01:42:53 26° SE 01:49:58 10° E visible
20 Nov - 03:37:14 10° SW 03:46:05 55° SSE 03:55:01 10° E visible
20 Nov - 05:41:04 10° W 05:50:10 70° S 05:59:27 10° ESE visible
20 Nov - 07:45:24 10° W 07:54:12 51° SSW 08:03:14 10° SE daylight
20 Nov - 09:50:39 10° W 09:57:18 22° SW 10:04:05 10° S daylight
21 Nov - 01:11:01 10° S 01:17:52 24° SE 01:24:42 10° E visible
21 Nov - 03:12:11 10° SW 03:20:59 53° SSE 03:29:51 10° E visible
21 Nov - 05:15:57 10° W 05:25:02 70° S 05:34:18 10° E visible
21 Nov - 07:20:16 10° W 07:29:06 53° SSW 07:38:10 10° SE daylight
21 Nov - 09:25:22 10° W 09:32:17 24° SW 09:39:21 10° S daylight
22 Nov - 00:46:19 10° S 00:52:51 22° SE 00:59:23 10° E visible
22 Nov - 02:47:09 10° SW 02:55:54 51° SSE 03:04:41 10° E visible
22 Nov - 04:50:49 10° W 04:59:54 70° S 05:09:09 10° E visible
22 Nov - 06:55:08 10° W 07:04:00 55° SSW 07:13:06 10° SE daylight
22 Nov - 09:00:06 10° W 09:07:16 26° SW 09:14:35 10° S daylight
23 Nov - 00:21:39 10° S 00:27:52 20° SE 00:34:03 10° E visible
23 Nov - 02:22:08 10° SW 02:30:49 49° SSE 02:39:32 10° E visible
23 Nov - 04:25:42 10° WSW 04:34:47 69° S 04:43:59 10° E visible
23 Nov - 06:30:01 10° W 06:38:54 57° SSW 06:48:01 10° SE visible
23 Nov - 08:34:52 10° W 08:42:14 28° SW 08:49:47 10° S daylight
